Regional Weather Roundup
Issued by NWS

Home | Current Version | Previous Version | Text Only | Print | Product List | Glossary On
Versions: 1 2 3 4 5 6 7 8 9 10 11 12 13 14 15 16 17 18 19 20 21 22 23 24 25 26 27 28 29 30 31 32 33 34 35 36 37 38 39 40 41 42 43 44 45 46 47 48 49 50
000
ASCA42 TJSJ 271910
RWRPR
PUERTO RICO/U.S. VIRGIN ISLANDS HOURLY WEATHER ROUNDUP
NATIONAL WEATHER SERVICE SAN JUAN PR
300 PM AST MON FEB 27 2017

PRZ001>002-007>008-010-272000-
PUERTO RICO

CITY           SKY/WX    TMP DP  RH WIND       PRES   REMARKS
SAN JUAN LMM   MOSUNNY   82  70  65 E17       30.06F
AGUADILLA      MOSUNNY   82  72  69 E22       30.07F
CEIBA          MOSUNNY   88  70  55 NE14G22   30.08F HX  92
$$

VIZ001>002-272000-
U.S. VIRGIN ISLANDS

CITY           SKY/WX    TMP DP  RH WIND       PRES   REMARKS
CHARLOTTE AMA  MOSUNNY   84  70  61 E15G23    30.04F
CHRISTIANSTED  MOSUNNY   86  66  51 E20       30.04F
$$

HOURLY WEATHER ROUNDUP FOR THE NEWS MEDIA

CITY           SKY/WX    TMP DP  RH WIND       PRES   REMARKS
ORLANDO        PTSUNNY   84  66  54 SE13      30.20F
NEW YORK       CLOUDY    48  38  68 S13       30.39F
NEWARK         CLOUDY    54  18  24 SW16      30.36F
CHICAGO        PTSUNNY   50  34  54 SW13G20   30.12F
HARTFORD       SUNNY     49  29  46 SW17      30.33F
BOSTON         PTSUNNY   54  19  25 SW23G29   30.26F
DALLAS         CLOUDY    73  62  68 S9        29.93F
PHILADELPHIA   CLOUDY    54  27  35 SW14      30.39F
LOS ANGELES    CLOUDY    56  46  69 E5        29.90S
WASHINGTON DC  CLOUDY    52  22  30 S8        30.36F


USA.gov is the U.S. government's official web portal to all federal, state and local government web resources and services.